星链-1749 (STARLINK-1749 )

导读 | 星芒AI

STARLINK-1749 是 SpaceX Starlink 卫星互联网项目中的第 1749 颗卫星,属于低轨通信卫星群,旨在为全球用户提供高速互联网服务。该卫星于 2023 年发射,运行在约 550 公里的轨道高度,采用先进推进系统和激光通信技术,以提升网络效率与稳定性。作为 Starlink 计划的一部分,STARLINK-1749 有助于扩大覆盖范围,特别是在偏远和网络基础设施薄弱地区。其部署支持 SpaceX 打造全球无缝宽带网络的目标。

基本信息
目录编号:
46589
目录名称:
STARLINK-1749
国际标识:
2020-070BK
轨道中心:
EARTH
卫星名称:
星链-1749
卫星全名:
星链-1749 (STARLINK-1749 )
卫星状态:
已陨落 最后检测时间 2025-03-20
发射日期:
2020-10-06 UTC
国别 :
美国 (US)
星等 :
--
轨道信息
数据来源 国际轨道数据
星历时间: 2025-03-20T06:39:59+0800
轨道信息已过期223天
半长轴: 6528.918km
偏心率: 0.0007487
轨道倾角: 53.019°
近地点辐角 259.303°
升交点赤经 245.773°
平近点角 239.248°
近地点: 145.894km
远地点: 155.672km
周期: 87.503分钟
每日圈数: 16.456633
详细信息
固有亮度:
5
最大亮度:
2.5
卫星平台:
Starlink V1.0
覆盖范围:
全球
运营商:
太空探索技术公司
运营商所在国:
美国
制造商(研发单位):
太空探索技术公司
制造商所在国:
美国
使用方式:
暂无
卫星简介
星链(Starlink)计划是由太空探索技术公司(SpaceX)提出的一个巨型低轨卫星互联网星座项目,计划在2019年至2024年间在太空搭建由约1.2万颗卫星组成的“星链”网络,其中1584颗将部署在地球上空550千米处的近地轨道,并从2020年开始工作。该卫星仍在工作。